| time (UTC) | temp F | wind direction | speed knots | gust knots | rain 1hr in | rain 24hr in | rain mn in | humidity % | barometer mb |
| 20260508014421 | 66 | 165 | 5.2 | 6.1 | 0.00 | 0.02 | 0.01 | 52 | 1012.8 |
| 20260508013443 | 66 | 154 | 6.1 | 6.1 | 0.00 | 0.02 | 0.01 | 51 | 1012.8 |
| 20260508012426 | 66 | 186 | 7.0 | 7.8 | 0.00 | 0.02 | 0.01 | 52 | 1012.8 |
| 20260508011427 | 67 | 171 | 7.0 | 7.0 | 0.00 | 0.02 | 0.01 | 50 | 1012.8 |
| 20260508010427 | 69 | 163 | 5.2 | 6.1 | 0.00 | 0.02 | 0.01 | 46 | 1012.9 |
| 20260508005428 | 69 | 180 | 4.3 | 5.2 | 0.00 | 0.02 | 0.01 | 46 | 1013.0 |
| 20260508004420 | 69 | 169 | 3.5 | 4.3 | 0.00 | 0.02 | 0.01 | 48 | 1013.2 |
| 20260508003421 | 69 | 167 | 7.0 | 7.8 | 0.00 | 0.02 | 0.01 | 47 | 1013.1 |
| 20260508002423 | 69 | 179 | 7.0 | 7.8 | 0.00 | 0.02 | 0.01 | 45 | 1013.2 |
| 20260508001427 | 69 | 169 | 5.2 | 7.0 | 0.00 | 0.02 | 0.01 | 46 | 1013.1 |
| 20260508000427 | 68 | 175 | 7.8 | 7.8 | 0.00 | 0.02 | 0.01 | 47 | 1013.3 |
| 20260507235427 | 69 | 118 | 6.1 | 6.1 | 0.00 | 0.02 | 0.01 | 45 | 1013.0 |
| 20260507234450 | 69 | 122 | 4.3 | 5.2 | 0.00 | 0.02 | 0.01 | 45 | 1013.3 |
| 20260507233420 | 70 | 153 | 3.5 | 5.2 | 0.00 | 0.02 | 0.01 | 47 | 1013.5 |
| 20260507232423 | 70 | 116 | 7.0 | 8.7 | 0.00 | 0.02 | 0.01 | 46 | 1013.4 |
| 20260507231423 | 69 | 198 | 6.1 | 7.0 | 0.00 | 0.02 | 0.01 | 48 | 1013.6 |
| 20260507230426 | 66 | 168 | 7.0 | 8.7 | 0.00 | 0.02 | 0.01 | 54 | 1013.5 |
| 20260507225426 | 67 | 173 | 3.5 | 5.2 | 0.00 | 0.02 | 0.01 | 53 | 1013.7 |
| 20260507224427 | 64 | 177 | 7.0 | 8.7 | 0.00 | 0.02 | 0.01 | 54 | 1013.7 |
| 20260507223429 | 65 | 168 | 7.8 | 8.7 | 0.00 | 0.02 | 0.01 | 53 | 1013.9 |
| 20260507222421 | 66 | 142 | 6.1 | 7.0 | 0.00 | 0.02 | 0.01 | 51 | 1014.2 |
| 20260507221423 | 67 | 161 | 5.2 | 6.1 | 0.00 | 0.02 | 0.01 | 51 | 1014.1 |
| 20260507220445 | 68 | 176 | 7.8 | 8.7 | 0.00 | 0.02 | 0.01 | 51 | 1014.0 |
| 20260507215426 | 67 | 149 | 6.1 | 7.0 | 0.01 | 0.02 | 0.01 | 48 | 1014.0 |
| 20260507214446 | 69 | 174 | 4.3 | 6.1 | 0.01 | 0.02 | 0.01 | 47 | 1014.0 |
| 20260507213427 | 68 | 157 | 4.3 | 6.1 | 0.01 | 0.02 | 0.01 | 49 | 1014.2 |
| 20260507212446 | 67 | 179 | 3.5 | 4.3 | 0.01 | 0.02 | 0.01 | 58 | 1014.4 |
| 20260507211421 | 63 | 140 | 3.5 | 6.1 | 0.01 | 0.02 | 0.01 | 65 | 1014.4 |
| 20260507210421 | 62 | 170 | 6.1 | 6.1 | 0.01 | 0.02 | 0.01 | 69 | 1014.7 |
| 20260507205446 | 64 | 0.0 | 0.0 | 0.00 | 0.01 | 0.00 | 60 | 1015.2 | |
| 20260507204507 | 64 | 324 | 2.6 | 3.5 | 0.00 | 0.01 | 0.00 | 56 | 1015.3 |
| 20260507203446 | 64 | 188 | 5.2 | 6.1 | 0.00 | 0.01 | 0.00 | 56 | 1015.0 |
| 20260507202428 | 65 | 114 | 3.5 | 4.3 | 0.00 | 0.01 | 0.00 | 52 | 1014.7 |
| 20260507201428 | 67 | 158 | 5.2 | 6.1 | 0.00 | 0.01 | 0.00 | 53 | 1014.7 |
| 20260507200422 | 67 | 141 | 8.7 | 11.3 | 0.00 | 0.01 | 0.00 | 49 | 1014.8 |
| 20260507195423 | 68 | 91 | 6.1 | 7.8 | 0.00 | 0.01 | 0.00 | 50 | 1014.8 |
| 20260507194425 | 66 | 171 | 9.6 | 11.3 | 0.00 | 0.01 | 0.00 | 54 | 1014.8 |
| 20260507193426 | 65 | 121 | 8.7 | 12.2 | 0.00 | 0.01 | 0.00 | 56 | 1014.8 |
| 20260507192426 | 66 | 160 | 7.8 | 9.6 | 0.00 | 0.01 | 0.00 | 57 | 1015.0 |
| 20260507191429 | 65 | 188 | 7.8 | 8.7 | 0.00 | 0.01 | 0.00 | 59 | 1014.9 |
| 20260507190430 | 65 | 167 | 4.3 | 5.2 | 0.00 | 0.01 | 0.00 | 60 | 1015.1 |
| 20260507185443 | 65 | 106 | 5.2 | 7.0 | 0.00 | 0.01 | 0.00 | 62 | 1015.1 |
| 20260507184421 | 65 | 129 | 5.2 | 6.1 | 0.00 | 0.01 | 0.00 | 61 | 1015.3 |
| 20260507183424 | 64 | 120 | 4.3 | 7.0 | 0.00 | 0.01 | 0.00 | 61 | 1015.4 |
| 20260507182445 | 64 | 140 | 4.3 | 6.1 | 0.00 | 0.01 | 0.00 | 61 | 1015.4 |
| 20260507181436 | 62 | 218 | 4.3 | 7.0 | 0.00 | 0.01 | 0.00 | 68 | 1015.3 |
| 20260507180428 | 61 | 146 | 3.5 | 4.3 | 0.00 | 0.01 | 0.00 | 68 | 1015.5 |
| 20260507175446 | 61 | 113 | 4.3 | 6.1 | 0.00 | 0.01 | 0.00 | 68 | 1015.3 |
| 20260507174420 | 60 | 174 | 3.5 | 5.2 | 0.00 | 0.01 | 0.00 | 71 | 1015.5 |
| 20260507173421 | 60 | 108 | 4.3 | 6.1 | 0.00 | 0.01 | 0.00 | 72 | 1015.6 |
| 20260507172423 | 60 | 122 | 2.6 | 3.5 | 0.00 | 0.01 | 0.00 | 72 | 1015.5 |
| 20260507171426 | 60 | 63 | 5.2 | 6.1 | 0.00 | 0.01 | 0.00 | 71 | 1015.4 |
| 20260507170426 | 60 | 159 | 4.3 | 7.0 | 0.00 | 0.01 | 0.00 | 71 | 1015.5 |
| 20260507165448 | 60 | 82 | 5.2 | 6.1 | 0.00 | 0.01 | 0.00 | 69 | 1015.8 |
| 20260507164429 | 60 | 122 | 4.3 | 5.2 | 0.00 | 0.01 | 0.00 | 72 | 1015.9 |
| 20260507163420 | 60 | 48 | 3.5 | 4.3 | 0.00 | 0.01 | 0.00 | 72 | 1016.0 |
| 20260507162422 | 56 | 87 | 1.7 | 2.6 | 0.00 | 0.01 | 0.00 | 81 | 1016.3 |
| 20260507161429 | 54 | 0.0 | 0.0 | 0.00 | 0.01 | 0.00 | 86 | 1016.3 | |
| 20260507160427 | 53 | 309 | 1.7 | 2.6 | 0.00 | 0.01 | 0.00 | 87 | 1016.1 |
| 20260507155426 | 52 | 0.0 | 0.0 | 0.00 | 0.01 | 0.00 | 88 | 1016.0 | |
| 20260507154428 | 52 | 42 | 3.5 | 3.5 | 0.00 | 0.01 | 0.00 | 87 | 1016.0 |
| 20260507153429 | 52 | 342 | 3.5 | 4.3 | 0.00 | 0.01 | 0.00 | 87 | 1016.0 |
| 20260507152420 | 53 | 347 | 3.5 | 5.2 | 0.00 | 0.01 | 0.00 | 86 | 1015.7 |
| 20260507151426 | 53 | 334 | 3.5 | 4.3 | 0.00 | 0.01 | 0.00 | 84 | 1015.8 |
| 20260507150426 | 53 | 54 | 3.5 | 4.3 | 0.00 | 0.01 | 0.00 | 84 | 1015.5 |
| 20260507145426 | 52 | 51 | 3.5 | 3.5 | 0.00 | 0.01 | 0.00 | 86 | 1015.5 |
| 20260507144426 | 52 | 352 | 2.6 | 3.5 | 0.00 | 0.01 | 0.00 | 87 | 1015.5 |
| 20260507143428 | 52 | 24 | 2.6 | 2.6 | 0.00 | 0.01 | 0.00 | 88 | 1015.3 |
| 20260507142429 | 51 | 337 | 4.3 | 4.3 | 0.00 | 0.01 | 0.00 | 88 | 1015.3 |
| 20260507141422 | 51 | 340 | 2.6 | 3.5 | 0.00 | 0.01 | 0.00 | 88 | 1015.0 |
| 20260507140423 | 50 | 328 | 1.7 | 2.6 | 0.00 | 0.01 | 0.00 | 89 | 1014.9 |
| 20260507135429 | 49 | 0.0 | 0.0 | 0.00 | 0.01 | 0.00 | 90 | 1014.8 | |
| 20260507134445 | 49 | 311 | 1.7 | 2.6 | 0.00 | 0.01 | 0.00 | 89 | 1014.8 |
| 20260507133426 | 49 | 330 | 3.5 | 3.5 | 0.00 | 0.01 | 0.00 | 89 | 1014.6 |
| 20260507132428 | 49 | 322 | 2.6 | 3.5 | 0.00 | 0.01 | 0.00 | 90 | 1014.4 |
| 20260507131429 | 48 | 284 | 1.7 | 2.6 | 0.00 | 0.01 | 0.00 | 91 | 1014.3 |
| 20260507130422 | 48 | 0.0 | 0.0 | 0.00 | 0.01 | 0.00 | 90 | 1014.3 | |
| 20260507125422 | 47 | 209 | 0.9 | 1.7 | 0.00 | 0.01 | 0.00 | 90 | 1014.2 |
| 20260507124425 | 47 | 351 | 0.9 | 1.7 | 0.00 | 0.01 | 0.00 | 91 | 1014.1 |
| 20260507123505 | 48 | 0.0 | 0.0 | 0.00 | 0.01 | 0.00 | 90 | 1014.0 | |
| 20260507122426 | 48 | 318 | 2.6 | 2.6 | 0.00 | 0.01 | 0.00 | 90 | 1014.0 |
| 20260507121428 | 48 | 0.0 | 0.0 | 0.00 | 0.01 | 0.00 | 88 | 1013.9 | |
| 20260507120426 | 49 | 336 | 1.7 | 2.6 | 0.00 | 0.01 | 0.00 | 88 | 1013.6 |
| 20260507115422 | 49 | 58 | 0.0 | 0.9 | 0.00 | 0.01 | 0.00 | 88 | 1013.6 |
| 20260507114422 | 49 | 0.0 | 0.0 | 0.00 | 0.01 | 0.00 | 88 | 1013.6 | |
| 20260507113423 | 49 | 7 | 1.7 | 2.6 | 0.00 | 0.01 | 0.00 | 88 | 1013.7 |
| 20260507112425 | 48 | 324 | 2.6 | 2.6 | 0.00 | 0.01 | 0.00 | 90 | 1013.6 |
| 20260507111426 | 47 | 0.0 | 0.0 | 0.00 | 0.01 | 0.00 | 90 | 1013.6 | |
| 20260507110427 | 47 | 0.0 | 0.0 | 0.00 | 0.01 | 0.00 | 89 | 1013.4 | |
| 20260507105450 | 48 | 96 | 0.9 | 1.7 | 0.00 | 0.01 | 0.00 | 88 | 1013.5 |
| 20260507104420 | 49 | 0.0 | 0.0 | 0.00 | 0.01 | 0.00 | 87 | 1013.4 | |
| 20260507103422 | 49 | 277 | 1.7 | 1.7 | 0.00 | 0.01 | 0.00 | 86 | 1013.3 |
| 20260507102423 | 49 | 314 | 2.6 | 3.5 | 0.00 | 0.01 | 0.00 | 87 | 1013.4 |
| 20260507101426 | 49 | 298 | 2.6 | 3.5 | 0.00 | 0.01 | 0.00 | 87 | 1013.2 |
| 20260507100426 | 49 | 337 | 1.7 | 1.7 | 0.00 | 0.01 | 0.00 | 86 | 1013.2 |
| 20260507095427 | 49 | 294 | 1.7 | 1.7 | 0.00 | 0.01 | 0.00 | 86 | 1013.3 |
| 20260507094429 | 50 | 0.0 | 0.0 | 0.00 | 0.01 | 0.00 | 84 | 1013.1 | |
| 20260507093420 | 51 | 209 | 3.5 | 3.5 | 0.00 | 0.01 | 0.00 | 83 | 1013.1 |
| 20260507092422 | 52 | 0.0 | 0.0 | 0.00 | 0.01 | 0.00 | 81 | 1013.2 | |
| 20260507091428 | 52 | 327 | 2.6 | 2.6 | 0.00 | 0.01 | 0.00 | 80 | 1013.4 |
| 20260507090427 | 53 | 1 | 6.1 | 7.0 | 0.00 | 0.01 | 0.00 | 79 | 1013.7 |
| 20260507085426 | 53 | 318 | 5.2 | 6.1 | 0.00 | 0.01 | 0.00 | 80 | 1013.5 |
| 20260507084428 | 53 | 339 | 3.5 | 4.3 | 0.00 | 0.01 | 0.00 | 80 | 1013.5 |
| 20260507083429 | 53 | 34 | 7.0 | 8.7 | 0.00 | 0.01 | 0.00 | 81 | 1013.6 |
| 20260507082422 | 54 | 354 | 7.0 | 8.7 | 0.00 | 0.01 | 0.00 | 81 | 1013.6 |
| 20260507081443 | 55 | 336 | 10.4 | 11.3 | 0.00 | 0.01 | 0.00 | 79 | 1013.6 |
| 20260507080423 | 55 | 23 | 3.5 | 4.3 | 0.00 | 0.01 | 0.00 | 75 | 1013.1 |
| 20260507075424 | 54 | 18 | 3.5 | 6.1 | 0.00 | 0.01 | 0.00 | 78 | 1013.4 |
| 20260507074426 | 54 | 348 | 5.2 | 6.1 | 0.00 | 0.01 | 0.00 | 78 | 1013.2 |
| 20260507073448 | 55 | 95 | 6.1 | 6.1 | 0.00 | 0.01 | 0.00 | 74 | 1013.0 |
| 20260507072426 | 55 | 0.0 | 0.0 | 0.00 | 0.01 | 0.00 | 73 | 1012.7 | |
| 20260507071522 | 55 | 285 | 2.6 | 2.6 | 0.00 | 0.01 | 0.00 | 72 | 1012.9 |
| 20260507070422 | 56 | 167 | 4.3 | 5.2 | 0.00 | 0.01 | 0.00 | 72 | 1012.7 |
| 20260507065443 | 56 | 356 | 0.9 | 1.7 | 0.00 | 0.01 | 0.00 | 68 | 1012.9 |
| 20260507064426 | 55 | 255 | 2.6 | 2.6 | 0.00 | 0.01 | 0.00 | 69 | 1012.8 |
| 20260507063426 | 55 | 240 | 1.7 | 2.6 | 0.00 | 0.01 | 0.00 | 74 | 1012.9 |
| 20260507062428 | 55 | 308 | 1.7 | 2.6 | 0.00 | 0.01 | 0.00 | 74 | 1012.4 |
| 20260507061430 | 55 | 334 | 1.7 | 1.7 | 0.00 | 0.01 | 0.00 | 72 | 1012.3 |
| 20260507060420 | 55 | 344 | 1.7 | 2.6 | 0.00 | 0.01 | 0.00 | 72 | 1012.5 |
| 20260507055422 | 55 | 0.0 | 0.0 | 0.00 | 0.01 | 0.01 | 72 | 1012.0 | |
| 20260507054425 | 56 | 114 | 1.7 | 3.5 | 0.00 | 0.01 | 0.01 | 70 | 1012.0 |
| 20260507053426 | 56 | 32 | 1.7 | 2.6 | 0.00 | 0.01 | 0.01 | 67 | 1012.0 |
| 20260507052446 | 57 | 78 | 5.2 | 7.0 | 0.01 | 0.01 | 0.01 | 65 | 1012.1 |
| 20260507051428 | 58 | 160 | 6.1 | 6.1 | 0.01 | 0.01 | 0.01 | 61 | 1011.2 |
| 20260507050425 | 58 | 164 | 2.6 | 3.5 | 0.01 | 0.01 | 0.01 | 61 | 1012.3 |
| 20260507045427 | 57 | 294 | 3.5 | 3.5 | 0.01 | 0.01 | 0.01 | 62 | 1012.9 |
| 20260507044422 | 57 | 300 | 6.1 | 6.1 | 0.01 | 0.01 | 0.01 | 65 | 1013.0 |
| 20260507043428 | 58 | 314 | 7.8 | 9.6 | 0.01 | 0.01 | 0.01 | 65 | 1012.7 |
| 20260507042426 | 56 | 312 | 7.8 | 8.7 | 0.00 | 0.00 | 0.00 | 66 | 1012.4 |
| 20260507041426 | 56 | 111 | 0.0 | 0.9 | 0.00 | 0.00 | 0.00 | 70 | 1011.5 |
| 20260507040428 | 56 | 0.0 | 0.0 | 0.00 | 0.00 | 0.00 | 68 | 1011.7 | |
| 20260507035429 | 56 | 0.0 | 0.0 | 0.00 | 0.00 | 0.00 | 67 | 1011.7 | |
| 20260507034420 | 56 | 0.0 | 0.0 | 0.00 | 0.00 | 0.00 | 65 | 1011.6 | |
| 20260507033423 | 57 | 0.0 | 0.0 | 0.00 | 0.00 | 0.00 | 63 | 1011.4 | |
| 20260507032426 | 58 | 155 | 2.6 | 2.6 | 0.00 | 0.00 | 0.00 | 62 | 1011.5 |
| 20260507031426 | 59 | 0.0 | 0.0 | 0.00 | 0.00 | 0.00 | 60 | 1011.5 | |
| 20260507030426 | 59 | 0.0 | 0.0 | 0.00 | 0.00 | 0.00 | 59 | 1011.4 | |
| 20260507025428 | 60 | 338 | 1.7 | 1.7 | 0.00 | 0.00 | 0.00 | 58 | 1011.3 |
| 20260507024429 | 61 | 0.0 | 0.0 | 0.00 | 0.00 | 0.00 | 53 | 1011.2 | |
| 20260507023422 | 62 | 67 | 2.6 | 2.6 | 0.00 | 0.00 | 0.00 | 53 | 1011.1 |
| 20260507022422 | 62 | 100 | 0.9 | 0.9 | 0.00 | 0.00 | 0.00 | 49 | 1011.3 |
| 20260507021445 | 63 | 173 | 1.7 | 1.7 | 0.00 | 0.00 | 0.00 | 51 | 1011.1 |
| 20260507020425 | 63 | 219 | 3.5 | 4.3 | 0.00 | 0.00 | 0.00 | 47 | 1010.9 |
| 20260507015426 | 63 | 210 | 3.5 | 3.5 | 0.00 | 0.00 | 0.00 | 51 | 1011.0 |